This is the latest recevied weather packets stored in our database for station/object p43g-13. If no packets are shown the sender has not sent any weather packets the latest 10 day(s).
| Time | Temp. | Humidity | Pressure | Rain* | Wind** | Luminosity | Snow |
|---|---|---|---|---|---|---|---|
| 1788040556 | 30° C | 81% | 1008.5 hPa | 0 mm | - | 74 W/m² | - |
| 1788040256 | 30° C | 81% | 1008.5 hPa | 0 mm | - | 83 W/m² | - |
| 1788039955 | 30.56° C | 80% | 1008.7 hPa | 0 mm | - | 92 W/m² | - |
| 1788039655 | 30° C | 80% | 1008.5 hPa | 0 mm | - | 101 W/m² | - |
| 1788039355 | 30° C | 80% | 1008.5 hPa | 0 mm | - | 73 W/m² | - |
| 1788039055 | 30° C | 80% | 1008.6 hPa | 0 mm | - | 136 W/m² | - |
| 1788038755 | 30.56° C | 80% | 1008.7 hPa | 0 mm | - | 146 W/m² | - |
| 1788038455 | 30.56° C | 79% | 1008.9 hPa | 0 mm | - | 184 W/m² | - |
| 1788038155 | 30.56° C | 79% | 1008.8 hPa | 0 mm | - | 196 W/m² | - |
| 1788037856 | 31.11° C | 77% | 1008.8 hPa | 0 mm | - | 238 W/m² | - |
| 1788037555 | 31.11° C | 77% | 1008.7 hPa | 0 mm | - | 238 W/m² | - |
| 1788037256 | 31.11° C | 77% | 1008.6 hPa | 0 mm | - | 249 W/m² | - |
| 1788036955 | 31.11° C | 77% | 1008.7 hPa | 0 mm | - | 286 W/m² | - |
| 1788036655 | 31.67° C | 77% | 1008.2 hPa | 0 mm | - | 316 W/m² | - |
| 1788036355 | 31.11° C | 77% | 1008.5 hPa | 0 mm | - | 324 W/m² | - |
| 1788036055 | 31.11° C | 77% | 1008.7 hPa | 0 mm | - | 345 W/m² | - |
| 1788035756 | 31.11° C | 77% | 1008.6 hPa | 0 mm | - | 368 W/m² | - |
| 1788035455 | 31.11° C | 77% | 1008.7 hPa | 0 mm | - | 387 W/m² | - |
| 1788035155 | 31.67° C | 76% | 1009.1 hPa | 0 mm | - | 413 W/m² | - |
| 1788034855 | 31.67° C | 76% | 1008.8 hPa | 0 mm | - | 456 W/m² | - |
| 1788034555 | 31.67° C | 76% | 1008.7 hPa | 0 mm | - | 476 W/m² | - |
| 1788034255 | 31.67° C | 77% | 1008.6 hPa | 0 mm | - | 158 W/m² | - |
| 1788033955 | 31.67° C | 77% | 1008.9 hPa | 0 mm | - | 203 W/m² | - |
| 1788033655 | 31.67° C | 77% | 1009 hPa | 0 mm | - | 549 W/m² | - |
| 1788033355 | 31.67° C | 76% | 1009 hPa | 0 mm | - | 608 W/m² | - |
* Rain latest hour (hover to see other rain measurements)
** Current wind speed in m/s (hover to see current wind gust speed)